| time (UTC) | temp C | wind direction | speed KPH | gust KPH | rain 1hr cm | rain 24hr cm | rain mn cm | humidity % | barometer mb |
| 20260510204534 | 3 | 94 | 0.0 | 0.0 | 0.00 | 0.00 | 0.00 | 97 | 999.4 |
| 20260510203037 | 3 | 94 | 0.0 | 0.0 | 0.00 | 0.00 | 0.00 | 97 | 999.2 |
| 20260510201530 | 3 | 94 | 0.0 | 0.0 | 0.00 | 0.00 | 0.00 | 98 | 998.9 |
| 20260510200029 | 3 | 96 | 0.0 | 0.0 | 0.00 | 0.00 | 0.00 | 97 | 998.7 |
| 20260510194530 | 3 | 94 | 0.0 | 0.0 | 0.00 | 0.00 | 0.00 | 97 | 998.6 |
| 20260510193024 | 3 | 93 | 0.0 | 0.0 | 0.00 | 0.00 | 0.00 | 98 | 998.5 |
| 20260510191523 | 2 | 93 | 0.0 | 0.0 | 0.00 | 0.00 | 0.00 | 97 | 998.3 |
| 20260510190028 | 3 | 93 | 0.0 | 0.0 | 0.00 | 0.00 | 0.00 | 97 | 998.1 |
| 20260510184519 | 3 | 96 | 0.0 | 0.0 | 0.00 | 0.00 | 0.00 | 97 | 998.1 |
| 20260510183017 | 3 | 95 | 0.0 | 0.0 | 0.00 | 0.00 | 0.00 | 97 | 998.1 |
| 20260510181524 | 3 | 93 | 0.0 | 0.0 | 0.00 | 0.00 | 0.00 | 97 | 997.9 |
| 20260510180012 | 3 | 93 | 0.0 | 0.0 | 0.00 | 0.00 | 0.00 | 97 | 997.8 |
| 20260510174512 | 3 | 94 | 0.0 | 0.0 | 0.00 | 0.00 | 0.00 | 97 | 997.7 |
| 20260510173007 | 4 | 93 | 0.0 | 0.0 | 0.00 | 0.00 | 0.00 | 97 | 997.7 |
| 20260510171510 | 4 | 94 | 0.0 | 0.0 | 0.00 | 0.00 | 0.00 | 97 | 997.7 |
| 20260510170005 | 5 | 93 | 0.0 | 0.0 | 0.00 | 0.00 | 0.00 | 97 | 997.7 |
| 20260510164504 | 5 | 92 | 0.0 | 0.0 | 0.00 | 0.00 | 0.00 | 97 | 997.6 |
| 20260510163003 | 5 | 94 | 0.0 | 0.0 | 0.00 | 0.00 | 0.00 | 97 | 997.5 |
| 20260510161502 | 5 | 94 | 0.0 | 0.0 | 0.00 | 0.00 | 0.00 | 97 | 997.6 |
| 20260510160104 | 5 | 92 | 0.0 | 0.0 | 0.00 | 0.00 | 0.00 | 96 | 997.7 |
| 20260510154600 | 6 | 94 | 0.0 | 0.0 | 0.00 | 0.00 | 0.00 | 97 | 997.6 |
| 20260510153102 | 5 | 94 | 0.0 | 0.0 | 0.00 | 0.00 | 0.00 | 97 | 997.6 |
| 20260510151559 | 5 | 94 | 0.0 | 0.0 | 0.00 | 0.00 | 0.00 | 96 | 997.6 |
| 20260510150056 | 5 | 94 | 0.0 | 0.0 | 0.00 | 0.00 | 0.00 | 96 | 997.7 |
| 20260510144553 | 6 | 92 | 0.0 | 0.0 | 0.00 | 0.00 | 0.00 | 97 | 997.8 |
| 20260510143051 | 6 | 95 | 0.0 | 0.0 | 0.00 | 0.00 | 0.00 | 97 | 997.7 |
| 20260510141555 | 6 | 94 | 0.0 | 0.0 | 0.00 | 0.00 | 0.00 | 96 | 997.7 |
| 20260510140054 | 6 | 94 | 0.0 | 0.0 | 0.00 | 0.00 | 0.00 | 96 | 997.8 |
| 20260510134547 | 6 | 94 | 0.0 | 0.0 | 0.00 | 0.00 | 0.00 | 96 | 997.8 |
| 20260510133045 | 6 | 92 | 0.0 | 0.0 | 0.00 | 0.00 | 0.00 | 96 | 997.8 |
| 20260510131544 | 6 | 93 | 0.0 | 0.0 | 0.00 | 0.00 | 0.00 | 96 | 997.8 |
| 20260510130044 | 6 | 93 | 0.0 | 0.0 | 0.00 | 0.00 | 0.00 | 96 | 997.8 |
| 20260510124554 | 6 | 94 | 0.0 | 0.0 | 0.00 | 0.00 | 0.00 | 96 | 997.9 |
| 20260510123041 | 6 | 93 | 0.0 | 0.0 | 0.00 | 0.00 | 0.00 | 95 | 998.0 |
| 20260510121539 | 7 | 94 | 0.0 | 1.6 | 0.00 | 0.00 | 0.00 | 95 | 998.0 |
| 20260510120038 | 7 | 92 | 0.0 | 0.0 | 0.00 | 0.00 | 0.00 | 95 | 997.9 |
| 20260510114541 | 7 | 92 | 0.0 | 0.0 | 0.00 | 0.00 | 0.00 | 95 | 997.8 |
| 20260510113036 | 7 | 93 | 0.0 | 0.0 | 0.00 | 0.00 | 0.00 | 95 | 997.7 |
| 20260510111532 | 7 | 92 | 0.0 | 0.0 | 0.00 | 0.00 | 0.00 | 95 | 997.7 |
| 20260510110031 | 7 | 94 | 0.0 | 1.6 | 0.00 | 0.00 | 0.00 | 95 | 997.5 |
| 20260510104535 | 7 | 94 | 0.0 | 1.6 | 0.00 | 0.00 | 0.00 | 95 | 997.5 |
| 20260510103028 | 7 | 93 | 0.0 | 0.0 | 0.00 | 0.00 | 0.00 | 94 | 997.5 |
| 20260510101528 | 8 | 94 | 0.0 | 3.2 | 0.00 | 0.00 | 0.00 | 95 | 997.4 |
| 20260510100027 | 8 | 98 | 0.0 | 1.6 | 0.00 | 0.00 | 0.00 | 95 | 997.2 |
| 20260510094535 | 7 | 86 | 0.0 | 0.0 | 0.00 | 0.00 | 0.00 | 94 | 997.2 |
| 20260510093024 | 8 | 85 | 0.0 | 0.0 | 0.00 | 0.00 | 0.00 | 93 | 997.2 |
| 20260510091523 | 8 | 84 | 0.0 | 0.0 | 0.00 | 0.00 | 0.00 | 93 | 997.1 |
| 20260510090024 | 8 | 85 | 0.0 | 0.0 | 0.00 | 0.00 | 0.00 | 93 | 996.9 |
| 20260510084523 | 8 | 86 | 0.0 | 0.0 | 0.00 | 0.00 | 0.00 | 92 | 996.8 |
| 20260510083021 | 9 | 86 | 0.0 | 0.0 | 0.00 | 0.00 | 0.00 | 91 | 996.6 |
| 20260510081534 | 10 | 86 | 0.0 | 0.0 | 0.00 | 0.00 | 0.00 | 90 | 996.4 |
| 20260510080030 | 10 | 76 | 0.0 | 0.0 | 0.00 | 0.00 | 0.00 | 88 | 996.3 |
| 20260510074520 | 11 | 75 | 0.0 | 0.0 | 0.00 | 0.00 | 0.00 | 87 | 996.1 |
| 20260510073019 | 11 | 305 | 0.0 | 1.6 | 0.00 | 0.00 | 0.00 | 85 | 995.9 |
| 20260510071519 | 12 | 262 | 0.0 | 4.8 | 0.00 | 0.00 | 0.00 | 83 | 995.8 |
| 20260510070021 | 13 | 328 | 0.0 | 3.2 | 0.00 | 0.00 | 0.00 | 82 | 995.8 |
| 20260510064520 | 13 | 313 | 0.0 | 6.4 | 0.00 | 0.00 | 0.00 | 79 | 995.6 |
| 20260510063020 | 14 | 283 | 0.0 | 4.8 | 0.00 | 0.00 | 0.00 | 78 | 995.5 |
| 20260510061524 | 14 | 317 | 1.6 | 8.0 | 0.00 | 0.00 | 0.00 | 78 | 995.4 |
| 20260510060015 | 15 | 281 | 3.2 | 12.9 | 0.00 | 0.00 | 0.00 | 77 | 995.4 |
| 20260510054515 | 15 | 278 | 1.6 | 14.5 | 0.00 | 0.00 | 0.00 | 77 | 995.4 |
| 20260510053014 | 15 | 313 | 4.8 | 11.3 | 0.00 | 0.00 | 0.00 | 76 | 995.2 |
| 20260510051521 | 15 | 233 | 1.6 | 9.7 | 0.00 | 0.00 | 0.00 | 77 | 995.1 |
| 20260510050010 | 15 | 231 | 1.6 | 14.5 | 0.00 | 0.00 | 0.00 | 78 | 995.2 |
| 20260510044511 | 15 | 319 | 6.4 | 17.7 | 0.00 | 0.00 | 0.00 | 76 | 995.1 |
| 20260510043018 | 15 | 311 | 4.8 | 14.5 | 0.00 | 0.00 | 0.00 | 77 | 995.2 |
| 20260510041506 | 15 | 238 | 3.2 | 12.9 | 0.00 | 0.00 | 0.00 | 76 | 995.3 |
| 20260510040005 | 15 | 262 | 3.2 | 12.9 | 0.00 | 0.00 | 0.00 | 78 | 995.3 |
| 20260510034503 | 15 | 226 | 4.8 | 16.1 | 0.00 | 0.00 | 0.00 | 77 | 995.4 |
| 20260510033001 | 15 | 316 | 4.8 | 11.3 | 0.00 | 0.00 | 0.00 | 77 | 995.4 |
| 20260510031603 | 15 | 228 | 4.8 | 12.9 | 0.00 | 0.00 | 0.00 | 76 | 995.4 |
| 20260510030058 | 15 | 285 | 4.8 | 11.3 | 0.00 | 0.00 | 0.00 | 77 | 995.6 |
| 20260510024610 | 14 | 242 | 4.8 | 17.7 | 0.00 | 0.00 | 0.00 | 78 | 995.6 |
| 20260510023059 | 15 | 283 | 3.2 | 11.3 | 0.00 | 0.00 | 0.00 | 77 | 995.9 |
| 20260510021552 | 14 | 281 | 4.8 | 14.5 | 0.00 | 0.00 | 0.00 | 76 | 996.1 |
| 20260510020050 | 14 | 250 | 4.8 | 11.3 | 0.00 | 0.00 | 0.00 | 78 | 996.3 |
| 20260510014649 | 14 | 291 | 6.4 | 17.7 | 0.00 | 0.00 | 0.00 | 78 | 996.5 |
| 20260510013100 | 14 | 250 | 4.8 | 9.7 | 0.00 | 0.00 | 0.00 | 78 | 996.6 |
| 20260510011548 | 14 | 307 | 3.2 | 9.7 | 0.00 | 0.00 | 0.00 | 78 | 996.9 |
| 20260510010046 | 13 | 330 | 3.2 | 8.0 | 0.00 | 0.00 | 0.00 | 78 | 996.9 |
| 20260510004547 | 13 | 250 | 1.6 | 11.3 | 0.00 | 0.00 | 0.00 | 79 | 996.9 |
| 20260510003041 | 13 | 139 | 1.6 | 8.0 | 0.00 | 0.00 | 0.00 | 81 | 997.0 |
| 20260510001539 | 13 | 319 | 3.2 | 8.0 | 0.00 | 0.00 | 0.00 | 82 | 997.0 |
| 20260510000037 | 12 | 225 | 0.0 | 6.4 | 0.00 | 0.00 | 0.00 | 84 | 996.9 |
| 20260509234535 | 12 | 195 | 1.6 | 6.4 | 0.00 | 0.00 | 0.00 | 85 | 997.0 |
| 20260509233031 | 12 | 303 | 0.0 | 1.6 | 0.00 | 0.00 | 0.00 | 90 | 997.0 |
| 20260509231528 | 11 | 96 | 0.0 | 1.6 | 0.00 | 0.00 | 0.00 | 93 | 997.0 |
| 20260509230024 | 10 | 98 | 0.0 | 3.2 | 0.00 | 0.00 | 0.00 | 93 | 996.9 |
| 20260509224523 | 10 | 115 | 1.6 | 4.8 | 0.00 | 0.00 | 0.00 | 92 | 996.8 |
| 20260509223022 | 9 | 109 | 1.6 | 4.8 | 0.00 | 0.00 | 0.00 | 93 | 996.7 |
| 20260509221520 | 9 | 82 | 1.6 | 4.8 | 0.00 | 0.00 | 0.00 | 93 | 996.5 |
| 20260509220018 | 8 | 79 | 1.6 | 4.8 | 0.00 | 0.00 | 0.00 | 94 | 996.4 |
| 20260509214516 | 8 | 77 | 1.6 | 4.8 | 0.00 | 0.00 | 0.00 | 95 | 996.2 |
| 20260509213014 | 8 | 94 | 0.0 | 1.6 | 0.00 | 0.00 | 0.00 | 96 | 996.0 |
| 20260509211516 | 7 | 197 | 0.0 | 0.0 | 0.00 | 0.00 | 0.00 | 96 | 995.8 |
| 20260509210015 | 7 | 196 | 0.0 | 0.0 | 0.00 | 0.00 | 0.00 | 95 | 995.7 |